Regional Weather Roundup
Issued by NWS Boston, MA

Home | Current Version | Previous Version | Text Only | Print | Product List | Glossary On
Versions: 1 2 3 4 5 6 7 8 9 10 11 12 13 14 15 16 17 18 19 20 21 22 23 24 25 26 27 28 29 30 31 32 33 34 35 36 37 38 39 40 41 42 43 44 45 46 47 48 49 50
000
ASUS41 KBOX 281210
RWRBOX

REGIONAL WEATHER ROUNDUP
NATIONAL WEATHER SERVICE TAUNTON MA
800 AM EDT SAT MAR 28 2015

NOTE:  "FAIR" INDICATES FEW OR NO CLOUDS BELOW 12,000 FEET WITH NO
SIGNIFICANT WEATHER AND/OR OBSTRUCTIONS TO VISIBILITY.  THE FOLLOWING
OBSERVATION LOCATIONS DO NOT REPORT PRESENT WEATHER...PROVINCETOWN...
SMITHFIELD...BLOCK ISLAND...KEENE...AND OXFORD.

MAZALL-281300-
EASTERN MASSACHUSETTS

CITY           SKY/WX    TMP DP  RH WIND       PRES   REMARKS
BOSTON         FLURRIES  35  31  85 NE16      29.75R WCI  25
6HR MIN TEMP:  35; 6HR MAX TEMP:  38; 6HR PCP: TRACE;

BEVERLY        LGT SNOW  36  27  69 NE14      29.74R WCI  27
LAWRENCE       CLOUDY    36  28  73 N10       29.77R WCI  28
BEDFORD        CLOUDY    35  29  78 N10       29.74R WCI  27
BLUE HILL        N/A     32  31  96 NE15G22   29.70R WCI  22
NORWOOD        LGT SNOW  35  32  88 N10       29.74R FOG     WCI  27
MARSHFIELD     CLOUDY    37  36  93 NE9G17    29.73S WCI  31
PLYMOUTH       LGT RAIN  38  36  92 N10       29.70R WCI  31
TAUNTON        LGT RAIN  37  34  89 N9        29.71R WCI  30
NEW BEDFORD    LGT RAIN  37  36  96 N6        29.69R
$$

MAZALL-281300-
CAPE COD AND THE ISLANDS

CITY           SKY/WX    TMP DP  RH WIND       PRES   REMARKS
FALMOUTH       DRIZZLE   37  36  93 NE12G18   29.68R WCI  30
HYANNIS        LGT RAIN  38  36  92 N10       29.66F WCI  31
CHATHAM        LGT RAIN  38  36  92 NE12      29.67F WCI  30
PROVINCETOWN   CLOUDY    37  34  87 NE10      29.70S WCI  30
NANTUCKET      LGT RAIN  39  35  86 NE17      29.65S WCI  30
MARTHAS VNYRD  LGT RAIN  37  32  82 NE10      29.67R WCI  30
$$

MAZALL-281300-
CENTRAL AND WESTERN MASSACHUSETTS

CITY           SKY/WX    TMP DP  RH WIND       PRES   REMARKS
WORCESTER      FLURRIES  33  26  75 N8        29.71R WCI  26
6HR MIN TEMP:  33; 6HR MAX TEMP:  36; 6HR PCP: TRACE;

FITCHBURG      LGT SNOW  35  28  75 N9        29.76R WCI  28
ORANGE         FLURRIES  32  25  75 N8        29.77R WCI  25
SPRINGFIELD    LGT SNOW  32  27  80 NE16G24   29.75R WCI  21
WESTFIELD      FLURRIES  34  26  72 N9        29.76R WCI  27
NORTH ADAMS    CLOUDY    27  22  81 W8G18     29.82R HAZE    WCI  19
PITTSFIELD     CLOUDY    26  23  88 NW8       29.75R WCI  18
$$

RIZALL-281300-
RHODE ISLAND

CITY           SKY/WX    TMP DP  RH WIND       PRES   REMARKS
PROVIDENCE     LGT RAIN  36  32  85 N15       29.72R FOG     WCI  27
6HR MIN TEMP:  36; 6HR MAX TEMP:  39; 6HR PCP:  0.07;

NEWPORT        LGT RAIN  36  35  96 N8        29.69R WCI  30
BLOCK ISLAND   CLOUDY    36  34  93 N8        29.68S WCI  29
SMITHFIELD     CLOUDY    34  28  80 N12       29.70S WCI  25
WESTERLY       LGT RAIN  35  33  92 N9        29.71R WCI  28
$$

CTZALL-281300-
CONNECTICUT

CITY           SKY/WX    TMP DP  RH WIND       PRES   REMARKS
BRADLEY INTL   LGT SNOW  35  28  75 N8        29.76R WCI  29
6HR MIN TEMP:  35; 6HR MAX TEMP:  38; 6HR PCP: TRACE;

HARTFORD       LGT SNOW  34  29  82 N9        29.76R WCI  27
BRIDGEPORT     LGT SNOW  34  27  75 NW12      29.76R WCI  25
DANBURY        LGT SNOW  31  21  66 VRB7      29.78S WCI  24
GROTON         LGT RAIN  35  34  96 N9        29.71S WCI  28
NEW HAVEN      LGT SNOW  34  29  82 NW8       29.74R WCI  27
CHESTER        LGT SNOW  34  32  93 N12G17    29.72S VSB 1   WCI  25
MERIDEN        LGT SNOW  34  28  79 N9        29.76R WCI  27
WILLIMANTIC    FLURRIES  36  29  75 N6        29.74R WCI  31
OXFORD         CLOUDY    30  21  69 N14       29.75S WCI  20
$$

MEZ002-015-021-024-NHZ003-005-008-011-012-014-VTZ005-008-281300-
NORTHERN NEW ENGLAND

CITY           SKY/WX    TMP DP  RH WIND       PRES   REMARKS
PORTLAND ME    CLOUDY    36  20  52 N14       29.78R WCI  27
6HR MIN TEMP:  36; 6HR MAX TEMP:  39;

BANGOR ME      CLOUDY    27  16  63 N13       29.84S WCI  16
CONCORD NH     CLOUDY    33  25  72 NW9       29.78R WCI  25
MANCHESTER NH  FLURRIES  34  31  88 N13       29.75R WCI  25
NASHUA NH      FLURRIES  35  29  79 N6        29.77R WCI  30
PORTSMOUTH NH  FLURRIES  36  26  66 N9        29.76R WCI  29
JAFFREY NH     LGT SNOW  31  27  85 CALM      29.74R FOG
KEENE NH       CLOUDY    30  23  74 N13       29.78R WCI  20
BURLINGTON VT  CLOUDY    21   7  54 N13G21    29.97R WCI   9
MT. WASHINGTON SNOW      10  10 100 NE7         N/A  VSB 1/4 WCI   0
$$

NYZ052-076-281300-
EASTERN NEW YORK

CITY           SKY/WX    TMP DP  RH WIND       PRES   REMARKS
ALBANY         FLURRIES  27  20  75 NW9       29.88R WCI  18
6HR MIN TEMP:  27; 6HR MAX TEMP:  31; 6HR PCP: TRACE;

NEW YORK CITY  CLOUDY    35  21  56 NW17      29.80R WCI  25
6HR MIN TEMP:  35; 6HR MAX TEMP:  39;

$$

ANZALL-281300-
MARINE OBSERVATIONS

STATION/POSITION TIME  TEMP    WIND        PRES    VSBY  WAVE
                       AIR SEA DIR/SP/G                  HT/PER
                 (UTC) (F)     (DEG/KT/KT) (MB)    (MI)  (FT/S)
BOSTON BUOY      1150   36 36   30/ 17/ 21 1006.4R         4/11
BUZZARDS BAY     1100          360/  9/ 10 1005.5S
NANTUCKET SOUND  1150   37 36   20/ 12/ 14 1004.0F         2/12
MASS BAY-STELLWA 1104   37 37   30/ 17/ 23   N/A    1 7/8  5/11
ISLE OF SHOALS   1100   36      30/ 25/ 28 1005.9R
S OF BLOCK IS    1108      38                N/A           8/11
$$

......................KEY.........................
  SKY/WX - SKY CONDITION/PRESENT WEATHER
  TMP    - TEMPERATURE IN FAHRENHEIT
  DWPT   - DEWPOINT IN FAHRENHEIT
  RH     - RELATIVE HUMIDITY IN PERCENT
  WIND   - DIRECTION AND SPEED IN MPH
  PRES   - MEAN SEA LEVEL PRESSURE IN INCHES OF HG
  WCI    - WIND CHILL INDEX
  VSB    - VISIBILITY IN MILES
  HX     - HEAT INDEX
  TC     - TEMPERATURE IN CELSIUS
  VRB    - VARIABLE WIND DIRECTION
  N/A    - NOT AVAILABLE


USA.gov is the U.S. government's official web portal to all federal, state and local government web resources and services.